Weather History for Henderson, NV

Change the Weather History Date:

Monday, June 9, 2014

  Actual Average (KLAS) Record (KLAS)
Temperature  
Mean Temperature 89 °F 85 °F  
Max Temperature 106 °F 97 °F 111 °F (1985)
Min Temperature 72 °F 73 °F 50 °F (1950)
Degree Days  
Heating Degree Days 0 0  
Month to date heating degree days 0  
Since 1 June heating degree days 0  
Since 1 July heating degree days 1950  
Cooling Degree Days 24 20  
Month to date cooling degree days 167  
Year to date cooling degree days 717  
Since 1 June cooling degree days 167  
Growing Degree Days 39 (Base 50)    
Moisture  
Dew Point 22 °F    
Average Humidity 10    
Maximum Humidity 20    
Minimum Humidity 4    
Precipitation  
Precipitation 0.00 in 0.00 in 0.15 in (1990)
Month to date precipitation 0.02  
Year to date precipitation 2.03  
Snow  
Snow 0.00 in 0.00 in 0.00 in ()
Month to date snowfall 0.0  
Since 1 June snowfall 0.0  
Since 1 July snowfall 0.3  
Snow Depth -    
Sea Level Pressure  
Sea Level Pressure 29.75 in    
Wind  
Wind Speed 6 mph (SSE)    
Max Wind Speed 17 mph    
Max Gust Speed 23 mph    
Visibility 10 miles    
Events      
T = Trace of Precipitation, MM = Missing Value Source: NWS Daily Summary

Daily Weather History Graph

Daily Weather History Graph

Search for Another Location

Airport:

Trip Planner

Search our weather history database for the weather conditions in past years. The results will help you decide how hot, cold, wet, or windy it might be!

Date:

Astronomy

Jun. 09, 2014 Rise Set
Actual Time 5:23 AM PDT 7:56 PM PDT
Civil Twilight 4:53 AM PDT 8:26 PM PDT
Nautical Twilight 4:16 AM PDT 9:03 PM PDT
Astronomical Twilight 3:34 AM PDT 9:45 PM PDT
Moon 4:27 PM PDT (6/9) 2:46 AM PDT (6/9)
Length of Visible Light 15h 33m
Length of Day
14h 32m
Waxing Gibbous, 86% of the Moon is Illuminated
Jun 9
Waxing Gibbous
Jun 12
Full
Jun 19
Last Quarter
Jun 27
New
Jul 5
First Quarter

Hourly Weather History & Observations

Time (PDT) Temp. Dew Point Humidity Pressure Visibility Wind Dir Wind Speed Gust Speed Precip Events Conditions
12:56 AM 79.0 °F 21.0 °F 12% 29.76 in 10.0 mi South 4.6 mph - N/A   Clear
1:56 AM 81.9 °F 23.0 °F 11% 29.76 in 10.0 mi Calm Calm - N/A   Clear
2:56 AM 75.9 °F 26.1 °F 16% 29.78 in 10.0 mi Calm Calm - N/A   Clear
3:56 AM 73.9 °F 27.1 °F 18% 29.79 in 10.0 mi SSE 5.8 mph - N/A   Clear
4:56 AM 72.0 °F 29.1 °F 20% 29.81 in 10.0 mi South 5.8 mph - N/A   Clear
5:56 AM 72.9 °F 28.0 °F 19% 29.83 in 10.0 mi SSE 6.9 mph - N/A   Clear
6:56 AM 77.0 °F 32.0 °F 19% 29.84 in 10.0 mi SSE 4.6 mph - N/A   Clear
7:56 AM 83.8 °F 24.1 °F 11% 29.85 in 10.0 mi Calm Calm - N/A   Clear
8:56 AM 88.9 °F 23.0 °F 9% 29.85 in 10.0 mi NE 8.1 mph - N/A   Clear
9:56 AM 91.9 °F 21.0 °F 8% 29.84 in 10.0 mi NE 5.8 mph - N/A   Clear
10:56 AM 93.9 °F 18.1 °F 6% 29.83 in 10.0 mi Variable 6.9 mph - N/A   Clear
12:56 PM 97.9 °F 17.1 °F 5% 29.78 in 10.0 mi Variable 3.5 mph - N/A   Clear
1:56 PM 101.8 °F 18.1 °F 5% 29.75 in 10.0 mi Variable 4.6 mph - N/A   Clear
2:56 PM 104.0 °F 17.1 °F 4% 29.72 in 10.0 mi East 6.9 mph - N/A   Clear
3:56 PM 106.0 °F 15.1 °F 4% 29.68 in 10.0 mi SSE 12.7 mph 18.4 mph N/A   Clear
4:56 PM 104.9 °F 15.1 °F 4% 29.66 in 10.0 mi Variable 5.8 mph - N/A   Clear
5:56 PM 104.9 °F 15.1 °F 4% 29.65 in 10.0 mi SE 13.8 mph 23.0 mph N/A   Clear
6:56 PM 101.8 °F 16.2 °F 5% 29.63 in 10.0 mi SE 17.3 mph 21.9 mph N/A   Clear
8:56 PM 97.0 °F 22.1 °F 7% 29.65 in 10.0 mi SSW 15.0 mph - N/A   Clear
9:56 PM 93.9 °F 21.0 °F 7% 29.67 in 10.0 mi South 12.7 mph - N/A   Clear
10:56 PM 90.9 °F 23.0 °F 9% 29.67 in 10.0 mi South 9.2 mph - N/A   Clear
11:56 PM 88.0 °F 23.0 °F 9% 29.67 in 10.0 mi SSW 13.8 mph - N/A   Clear